Location: Anan
(43.3550°N, 0.8171°E)
Time: 15:43:07
(UTC+00:00)

CZ-4B R/B - Pass Details

Date: 14 May 2026
Orbit: 460 x 562 km, 97.8° (Epoch: 10 June)

Event Time Altitude Azimuth Distance (km) Brightness Sun altitude
Exits shadow 19:52:55 - 169° (S) 2,766 7.0 -7.0°
Rises 19:53:00 0° 169° (S) 2,729 6.9 -7.1°
Reaches altitude 10° 19:55:07 10° 171° (S) 1,845 6.1 -7.4°
Maximum altitude 19:59:08 76° 257° (WSW) 585 4.1 -8.0°
Drops below altitude 10° 20:03:11 10° 344° (NNW) 1,863 7.4 -8.6°
Sets 20:05:20 0° 346° (NNW) 2,759 8.3 -8.9°
